When you browse on this site, cookies collect data to enhance your experience and personalize the content and advertising you see.
Visit our Privacy Policy to learn more. By continuing to use the site, you agree to this use of cookies and data.
  • En España
  • Lista de países
  • Para 7 días
  • Temperatura del agua
  • El tiempo en el mapa
  • Informadores
  • user-avatar
    Iniciar sesión

    Tiempo cada hora Mansa Konko

    Hoy, 25 Febrero, Martes

    Tiempo Temperatura Precipitaciones Viento Presión Humedad
    00:00 +35°C° 0 mm 4 mps 755 mmHg 9%
    01:00 +36°C° 0 mm 4 mps 755 mmHg 8%
    02:00 +36°C° 0 mm 4 mps 755 mmHg 8%
    03:00 +34°C° 0 mm 4 mps 755 mmHg 9%
    04:00 +33°C° 0 mm 3 mps 755 mmHg 10%
    05:00 +30°C° 0 mm 3 mps 755 mmHg 11%
    06:00 +31°C° 0 mm 3 mps 755 mmHg 12%
    07:00 +33°C° 0 mm 3 mps 756 mmHg 14%
    08:00 +33°C° 0 mm 4 mps 756 mmHg 15%
    09:00 +36°C° 0 mm 5 mps 756 mmHg 14%
    10:00 +40°C° 0 mm 6 mps 756 mmHg 12%
    11:00 +44°C° 0 mm 7 mps 756 mmHg 11%
    12:00 +45°C° 0 mm 7 mps 755 mmHg 11%
    13:00 +46°C° 0 mm 6 mps 754 mmHg 10%
    14:00 +47°C° 0 mm 5 mps 753 mmHg 9%
    15:00 +47°C° 0 mm 5 mps 753 mmHg 9%
    16:00 +47°C° 0 mm 4 mps 753 mmHg 9%
    17:00 +45°C° 0 mm 3 mps 753 mmHg 10%
    18:00 +42°C° 0 mm 3 mps 754 mmHg 11%
    19:00 +38°C° 0 mm 2 mps 755 mmHg 13%
    20:00 +36°C° 0 mm 2 mps 755 mmHg 14%
    21:00 +32°C° 0 mm 2 mps 756 mmHg 27%
    22:00 +29°C° 0 mm 3 mps 756 mmHg 40%
    23:00 +27°C° 0 mm 3 mps 756 mmHg 52%

    Mañana, 26 Febrero, Miércoles

    Tiempo Temperatura Precipitaciones Viento Presión Humedad
    00:00 +26°C° 0 mm 3 mps 756 mmHg 55%
    01:00 +25°C° 0 mm 2 mps 756 mmHg 58%
    02:00 +25°C° 0 mm 2 mps 756 mmHg 60%
    03:00 +25°C° 0 mm 2 mps 756 mmHg 55%
    04:00 +25°C° 0 mm 2 mps 756 mmHg 50%
    05:00 +25°C° 0 mm 2 mps 756 mmHg 44%
    06:00 +27°C° 0 mm 4 mps 756 mmHg 32%
    07:00 +30°C° 0 mm 5 mps 757 mmHg 21%
    08:00 +33°C° 0 mm 6 mps 757 mmHg 9%
    09:00 +36°C° 0 mm 7 mps 757 mmHg 8%
    10:00 +40°C° 0 mm 7 mps 757 mmHg 7%
    11:00 +43°C° 0 mm 7 mps 757 mmHg 6%
    12:00 +44°C° 0 mm 6 mps 756 mmHg 5%
    13:00 +45°C° 0 mm 6 mps 755 mmHg 5%
    14:00 +47°C° 0 mm 6 mps 754 mmHg 5%
    15:00 +46°C° 0 mm 6 mps 754 mmHg 5%
    16:00 +46°C° 0 mm 5 mps 753 mmHg 5%
    17:00 +45°C° 0 mm 5 mps 753 mmHg 5%
    18:00 +41°C° 0 mm 4 mps 754 mmHg 7%
    19:00 +38°C° 0 mm 3 mps 755 mmHg 8%
    20:00 +35°C° 0 mm 3 mps 756 mmHg 9%
    21:00 +33°C° 0 mm 3 mps 756 mmHg 17%
    22:00 +30°C° 0 mm 2 mps 756 mmHg 26%
    23:00 +28°C° 0 mm 2 mps 756 mmHg 34%

    Pasado mañana, 27 Febrero, Jueves

    Tiempo Temperatura Precipitaciones Viento Presión Humedad
    00:00 +27°C° 0 mm 2 mps 756 mmHg 41%
    01:00 +25°C° 0 mm 2 mps 756 mmHg 48%
    02:00 +24°C° 0 mm 2 mps 756 mmHg 56%
    03:00 +24°C° 0 mm 1 mps 756 mmHg 57%
    04:00 +23°C° 0 mm 1 mps 756 mmHg 58%
    05:00 +23°C° 0 mm 1 mps 756 mmHg 59%
    06:00 +25°C° 0 mm 1 mps 757 mmHg 51%
    07:00 +25°C° 0 mm 0 mps 757 mmHg 44%
    08:00 +27°C° 0 mm 0 mps 758 mmHg 36%
    09:00 +32°C° 0 mm 1 mps 758 mmHg 27%
    10:00 +36°C° 0 mm 2 mps 758 mmHg 18%
    11:00 +40°C° 0 mm 3 mps 757 mmHg 9%
    12:00 +42°C° 0 mm 3 mps 757 mmHg 8%
    13:00 +44°C° 0 mm 3 mps 756 mmHg 7%
    14:00 +45°C° 0 mm 3 mps 755 mmHg 7%
    15:00 +45°C° 0 mm 3 mps 755 mmHg 6%
    16:00 +44°C° 0 mm 4 mps 754 mmHg 6%
    17:00 +44°C° 0 mm 4 mps 754 mmHg 6%
    18:00 +40°C° 0 mm 3 mps 755 mmHg 8%
    19:00 +36°C° 0 mm 3 mps 755 mmHg 10%
    20:00 +32°C° 0 mm 2 mps 756 mmHg 12%
    21:00 +30°C° 0 mm 2 mps 756 mmHg 21%
    22:00 +27°C° 0 mm 3 mps 757 mmHg 31%
    23:00 +25°C° 0 mm 3 mps 757 mmHg 40%

    28 Febrero, Viernes

    Tiempo Temperatura Precipitaciones Viento Presión Humedad
    00:00 +24°C° 0 mm 2 mps 757 mmHg 41%
    01:00 +24°C° 0 mm 2 mps 757 mmHg 42%
    02:00 +23°C° 0 mm 2 mps 756 mmHg 43%
    03:00 +23°C° 0 mm 1 mps 756 mmHg 41%
    04:00 +22°C° 0 mm 1 mps 757 mmHg 38%
    05:00 +20°C° 0 mm 0 mps 757 mmHg 36%
    06:00 +24°C° 0 mm 1 mps 757 mmHg 29%
    07:00 +26°C° 0 mm 1 mps 758 mmHg 22%
    08:00 +28°C° 0 mm 1 mps 758 mmHg 15%
    09:00 +32°C° 0 mm 2 mps 758 mmHg 12%
    10:00 +36°C° 0 mm 2 mps 758 mmHg 9%
    11:00 +40°C° 0 mm 3 mps 758 mmHg 6%
    12:00 +42°C° 0 mm 2 mps 757 mmHg 5%
    13:00 +43°C° 0 mm 1 mps 756 mmHg 4%
    14:00 +45°C° 0 mm 1 mps 755 mmHg 4%
    15:00 +44°C° 0 mm 1 mps 755 mmHg 4%
    16:00 +43°C° 0 mm 1 mps 755 mmHg 4%
    17:00 +40°C° 0 mm 0 mps 754 mmHg 5%
    18:00 +39°C° 0 mm 2 mps 755 mmHg 8%
    19:00 +35°C° 0 mm 3 mps 756 mmHg 10%
    20:00 +30°C° 0 mm 4 mps 756 mmHg 13%
    21:00 +29°C° 0 mm 4 mps 757 mmHg 18%
    22:00 +27°C° 0 mm 4 mps 757 mmHg 23%
    23:00 +25°C° 0 mm 3 mps 758 mmHg 28%

    29 Febrero, Sábado

    Tiempo Temperatura Precipitaciones Viento Presión Humedad
    00:00 +24°C° 0 mm 3 mps 757 mmHg 26%
    01:00 +24°C° 0 mm 3 mps 757 mmHg 24%
    02:00 +22°C° 0 mm 3 mps 756 mmHg 23%
    03:00 +22°C° 0 mm 3 mps 756 mmHg 21%
    04:00 +22°C° 0 mm 3 mps 756 mmHg 19%
    05:00 +21°C° 0 mm 3 mps 756 mmHg 18%
    06:00 +24°C° 0 mm 3 mps 757 mmHg 15%
    07:00 +26°C° 0 mm 3 mps 757 mmHg 12%
    08:00 +27°C° 0 mm 3 mps 758 mmHg 9%
    09:00 +31°C° 0 mm 3 mps 758 mmHg 8%
    10:00 +36°C° 0 mm 4 mps 757 mmHg 6%
    11:00 +41°C° 0 mm 4 mps 757 mmHg 5%
    12:00 +42°C° 0 mm 4 mps 756 mmHg 5%
    13:00 +44°C° 0 mm 4 mps 755 mmHg 5%
    14:00 +45°C° 0 mm 4 mps 754 mmHg 5%
    15:00 +45°C° 0 mm 3 mps 754 mmHg 6%
    16:00 +45°C° 0 mm 2 mps 754 mmHg 6%
    17:00 +43°C° 0 mm 1 mps 754 mmHg 7%
    18:00 +40°C° 0 mm 1 mps 754 mmHg 9%
    19:00 +37°C° 0 mm 2 mps 755 mmHg 11%
    20:00 +34°C° 0 mm 2 mps 755 mmHg 13%
    21:00 +30°C° 0 mm 2 mps 756 mmHg 18%
    22:00 +28°C° 0 mm 2 mps 756 mmHg 24%
    23:00 +26°C° 0 mm 2 mps 756 mmHg 29%

    1 Marzo, Domingo

    Tiempo Temperatura Precipitaciones Viento Presión Humedad
    00:00 +26°C° 0 mm 2 mps 756 mmHg 28%
    01:00 +25°C° 0 mm 2 mps 756 mmHg 26%
    02:00 +25°C° 0 mm 2 mps 755 mmHg 24%
    03:00 +24°C° 0 mm 2 mps 755 mmHg 22%
    04:00 +24°C° 0 mm 2 mps 755 mmHg 19%
    05:00 +24°C° 0 mm 2 mps 755 mmHg 17%
    06:00 +26°C° 0 mm 2 mps 756 mmHg 14%
    07:00 +28°C° 0 mm 2 mps 756 mmHg 12%
    08:00 +29°C° 0 mm 3 mps 757 mmHg 9%
    09:00 +34°C° 0 mm 3 mps 756 mmHg 7%
    10:00 +38°C° 0 mm 4 mps 756 mmHg 6%
    11:00 +43°C° 0 mm 5 mps 756 mmHg 4%
    12:00 +44°C° 0 mm 4 mps 755 mmHg 4%
    13:00 +45°C° 0 mm 4 mps 754 mmHg 4%
    14:00 +47°C° 0 mm 4 mps 753 mmHg 4%
    15:00 +46°C° 0 mm 3 mps 753 mmHg 5%
    16:00 +45°C° 0 mm 3 mps 753 mmHg 5%
    17:00 +45°C° 0 mm 3 mps 753 mmHg 5%
    18:00 +42°C° 0 mm 3 mps 753 mmHg 8%
    19:00 +37°C° 0 mm 3 mps 754 mmHg 11%
    20:00 +34°C° 0 mm 2 mps 755 mmHg 14%
    21:00 +30°C° 0 mm 2 mps 755 mmHg 21%
    22:00 +28°C° 0 mm 2 mps 756 mmHg 29%
    23:00 +26°C° 0 mm 2 mps 756 mmHg 36%
    Mostrar más